DELTA 1 DEB, 7033

Orbit data source: Space-Track

DELTA 1 DEB, 7033 is space debris in SSO originally from a launch on Tue, 06 Nov 1973 UTC launched from the Air Force Western Test Range (AFWTR). Debris objects in space refer to the collection of defunct objects orbiting the Earth. Examples of debris include non-operational satellites, rocket bodies, and fragments generated from explosions, collisions, or faulty payload assembly.

Loading next visibility...
Identifier
7033, 1973-086Z
Orbit
SSO
Country
Flag of USUS
Related business
Manufacturer
Unknown
Mission
Spacecraft
Bus & Motor
Unknown
Mass
Unknown
Launch date (UTC)
1973-11-06 (53 years ago)
Launch vehicle
Unknown
Launch site
Air Force Western Test Range (AFWTR)
Object type
Payload
Rocket body
Debris
Shape & HBR
Unknown shape, 0.2 m
Radar Cross Section
Medium (>0.1 m² and <1 m²)

Expand to show TLE details & history
Last TLE update: 19 hours ago

TLE from 19 hours ago
0 DELTA 1 DEB
1 07033U 73086Z   26206.55263108  .00000020  00000-0  45302-3 0  9992
2 07033 101.5776 231.3347 0025268 225.8605 289.4534 12.41926399382257
Epoch: 2026-07-25T13:15Z
TLE epoch observation values (Epoch: 2026-07-25T13:15:47.325Z)
Latitude
24.44388°
Longitude
-85.5589°
Altitude
1,494.516 km
Speed
7.122 km/s
True Right ascension
03h 46m 36s
True Declination
24° 19' 36"
Sunlit
Object was in daylight at epoch
Visualization orbit readout
Latitude
Unknown
Longitude
Unknown
Altitude
Unknown
Speed
Unknown
Apparent Right ascension
Unknown
Apparent Declination
Unknown
Sunlit
N/A
Visualization observer readout
Local Sidereal Time
21:18:01
Azimuth
Unknown
Elevation
Unknown
Doppler factor
Unknown
Orbital elements
Apogee altitude
1,515.891 km
Perigee altitude
1,476.099 km
Semi-major axis
7,874.132 km
Eccentricity
0.00253
Inclination
101.5776°
RAAN
231.3347°
Arg. of periapsis
225.8605°
True anomaly
289.18009°
Mean anomaly
289.4534°
Eccentric anomaly
289.31678°
Mean motion
3.10627 °/min
Orbital period
115.89 mins
BSTAR
0.00045302
Loading maneuver chart data...
Computing Atmospheric mass density...
Loading historical data...
Loading historical data...
Loading historical data...
Loading historical data...
Loading historical data...
Loading historical data...
Loading historical data...

Documentation

Showing up to 5 results
|